This demonstration page uses our WeatherBlox Daily Observations layout. Learn more.

40.92945, -100.16068

Hourly Observations for November 18, 2019

Temp ( °F °C ) Dew Point ( °F °C ) Humidity (%) Winds ( mph kmh ) Pressure ( in mb ) Visibility ( mi km ) Precip ( " mm )
12:15 am 00:15 Mostly Cloudy 46 7.5 30 -1.2 54 54 WSW 5 7 29.83 1010 10 16.09344 0 0
12:35 am 00:35 Cloudy 45 7.2 30 -1 56 56 WNW 3 6 29.83 1010 10 16.09344 0 0
12:55 am 00:55 Cloudy 44 6.6 30 -1.1 58 58 W 5 7 29.83 1010 10 16.09344 0 0
1:15 am 01:15 Mostly Cloudy 43 6.1 30 -1.1 60 60 Calm 29.8 1009 10 16.09344 0 0
1:35 am 01:35 Partly Cloudy 43 6.1 29 -1.5 59 59 WSW 5 7 29.8 1009 10 16.09344 0 0
1:55 am 01:55 Partly Cloudy 40 4.2 29 -1.7 66 66 WSW 5 7 29.83 1010 10 16.09344 0 0
2:15 am 02:15 Mostly Cloudy 40 4.5 30 -1.3 66 66 W 6 9 29.8 1009 10 16.09344 0 0
2:35 am 02:35 Cloudy 41 5 31 -0.8 66 66 W 6 9 29.8 1009 10 16.09344 0 0
2:55 am 02:55 Cloudy 41 5.1 32 0 70 70 WNW 6 9 29.8 1009 10 16.09344 0 0
3:15 am 03:15 Cloudy 42 5.5 32 0 68 68 NW 7 11 29.8 1009 10 16.09344 0 0
3:35 am 03:35 Cloudy with Light Drizzle 42 5.6 32 0.2 69 69 NNW 6 9 29.8 1009 10 16.09344 0 0
3:55 am 03:55 Cloudy 41 5.2 33 0.6 72 72 WNW 7 11 29.8 1009 10 16.09344 0 0
4:15 am 04:15 Mostly Cloudy 41 4.9 33 0.7 75 75 WNW 5 7 29.8 1009 10 16.09344 0 0
4:35 am 04:35 Mostly Cloudy 39 4.1 33 0.5 78 78 WNW 8 13 29.83 1010 10 16.09344 0 0
4:55 am 04:55 Cloudy 41 4.8 33 0.7 75 75 WNW 6 9 29.8 1009 10 16.09344 0 0
5:15 am 05:15 Mostly Cloudy 40 4.5 34 1 78 78 WNW 10 17 29.8 1009 10 16.09344 0 0
5:35 am 05:35 Partly Cloudy 40 4.5 34 1.1 79 79 WNW 8 13 29.8 1009 10 16.09344 0 0
5:55 am 05:55 Clear 40 4.5 34 1.2 79 79 NW 8 13 29.8 1009 10 16.09344 0 0
6:15 am 06:15 Partly Cloudy 39 3.9 34 0.9 81 81 WNW 7 11 29.83 1010 10 16.09344 0 0
6:35 am 06:35 Clear 38 3.4 33 0.7 83 83 WNW 8 13 29.85 1011 10 16.09344 0 0
6:55 am 06:55 Mostly Cloudy 39 4.1 34 1 80 80 WNW 12 19 29.85 1011 10 16.09344 0 0
7:15 am 07:15 Cloudy 41 5 34 1.2 77 77 WNW 13 20 29.83 1010 10 16.09344 0 0
7:35 am 07:35 Cloudy 44 6.6 35 1.8 72 72 WNW 15 24 29.85 1011 10 16.09344 0 0
7:55 am 07:55 Mostly Cloudy 43 5.9 35 1.6 74 74 WNW 13 20 29.85 1011 10 16.09344 0 0
8:15 am 08:15 Sunny 42 5.4 35 1.8 78 78 WNW 8 13 29.85 1011 10 16.09344 0 0
8:35 am 08:35 Sunny 43 6 36 2.2 77 77 WNW 10 17 29.85 1011 10 16.09344 0 0
8:55 am 08:55 Partly Cloudy 45 7.1 38 3.1 76 76 WNW 12 19 29.85 1011 10 16.09344 0 0
9:15 am 09:15 Mostly Cloudy 48 8.9 39 4 72 72 WNW 16 26 29.83 1010 10 16.09344 0 0
9:35 am 09:35 Partly Cloudy 48 9 40 4.3 73 73 WNW 17 28 29.83 1010 10 16.09344 0 0
9:55 am 09:55 Sunny 51 10.7 41 5.1 69 69 NW 18 30 29.83 1010 10 16.09344 0 0
10:15 am 10:15 Sunny 53 11.7 42 5.8 67 67 NW 16 26 29.8 1009 10 16.09344 0 0
10:35 am 10:35 Sunny 56 13.5 44 6.5 63 63 NW 16 26 29.8 1009 10 16.09344 0 0
10:55 am 10:55 Sunny 59 14.8 44 6.7 59 59 NW 16 26 29.77 1008 10 16.09344 0 0
11:15 am 11:15 Sunny 62 16.7 42 5.7 48 48 NNW 18 30 29.77 1008 10 16.09344 0 0
11:35 am 11:35 Sunny 64 17.6 40 4.2 41 41 NNW 31 50 29.77 1008 10 16.09344 0 0
11:55 am 11:55 Sunny 64 18 37 3 37 37 NNW 28 44 29.77 1008 10 16.09344 0 0
12:15 pm 12:15 Sunny 65 18.2 37 2.7 36 36 NNW 28 44 29.74 1007 10 16.09344 0 0
12:35 pm 12:35 Sunny 66 18.9 36 2.1 33 33 NNW 26 43 29.74 1007 10 16.09344 0 0
12:55 pm 12:55 Partly Cloudy 66 18.8 36 2.2 33 33 NNW 25 41 29.71 1006 10 16.09344 0 0
1:15 pm 13:15 Partly Cloudy 66 18.8 36 2.3 33 33 NW 28 44 29.71 1006 10 16.09344 0 0
1:35 pm 13:35 Partly Cloudy 66 18.9 36 2.3 33 33 NNW 24 39 29.71 1006 10 16.09344 0 0
1:55 pm 13:55 Partly Cloudy 66 19 35 1.4 31 31 NW 31 50 29.71 1006 10 16.09344 0 0
2:15 pm 14:15 Sunny 66 18.9 33 0.7 30 30 NNW 30 48 29.71 1006 10 16.09344 0 0
2:35 pm 14:35 Sunny 66 18.9 33 0.5 29 29 NW 31 50 29.71 1006 10 16.09344 0 0
2:55 pm 14:55 Partly Cloudy 66 18.9 32 0 28 28 NNW 29 46 29.71 1006 10 16.09344 0 0
3:15 pm 15:15 Sunny 66 18.7 33 0.3 29 29 NNW 25 41 29.71 1006 10 16.09344 0 0
3:35 pm 15:35 Sunny 65 18.5 33 0.4 30 30 NW 28 44 29.71 1006 10 16.09344 0 0
3:55 pm 15:55 Sunny 65 18.1 30 -1.1 27 27 NW 26 43 29.74 1007 10 16.09344 0 0
4:15 pm 16:15 Sunny 64 17.5 28 -2 27 27 NNW 24 39 29.77 1008 10 16.09344 0 0
4:35 pm 16:35 Sunny 63 17 28 -2.5 26 26 NNW 26 43 29.77 1008 10 16.09344 0 0
4:55 pm 16:55 Sunny 61 16 27 -2.7 28 28 NW 24 39 29.77 1008 10 16.09344 0 0
5:15 pm 17:15 Sunny 59 15.1 27 -2.8 29 29 NNW 18 30 29.77 1008 10 16.09344 0 0
5:35 pm 17:35 Clear 57 14.1 27 -3 31 31 NNW 15 24 29.83 1010 10 16.09344 0 0
5:55 pm 17:55 Clear 57 13.8 26 -3.5 30 30 NNW 15 24 29.83 1010 10 16.09344 0 0
6:15 pm 18:15 Clear 54 12.2 27 -3 35 35 NW 14 22 29.83 1010 10 16.09344 0 0
6:35 pm 18:35 Clear 53 11.5 27 -3 36 36 NNW 14 22 29.88 1012 10 16.09344 0 0
6:55 pm 18:55 Clear 51 10.8 26 -3.2 38 38 NW 13 20 29.88 1012 10 16.09344 0 0
7:15 pm 19:15 Clear 46 7.9 26 -3.4 45 45 NW 10 17 29.91 1013 10 16.09344 0 0
7:35 pm 19:35 Clear 46 7.6 26 -3.3 46 46 NW 12 19 29.91 1013 10 16.09344 0 0
7:55 pm 19:55 Clear 43 6.1 26 -3.6 50 50 NW 10 17 29.94 1014 10 16.09344 0 0
8:15 pm 20:15 Clear 42 5.4 25 -3.8 52 52 W 6 9 29.97 1015 10 16.09344 0 0
8:35 pm 20:35 Clear 38 3.2 25 -4.1 59 59 W 10 17 29.97 1015 10 16.09344 0 0
8:55 pm 20:55 Clear 39 3.8 26 -3.6 59 59 WNW 9 15 29.97 1015 10 16.09344 0 0
9:15 pm 21:15 Clear 38 3.4 26 -3.5 61 61 NW 10 17 29.97 1015 10 16.09344 0 0
9:35 pm 21:35 Clear 38 3.2 25 -3.9 60 60 NW 10 17 29.97 1015 10 16.09344 0 0
9:55 pm 21:55 Clear 37 2.8 25 -3.7 63 63 NW 9 15 30 1016 10 16.09344 0 0
10:15 pm 22:15 Clear 36 2 25 -4 65 65 NW 6 9 30 1016 10 16.09344 0 0
10:35 pm 22:35 Clear 34 0.9 25 -4 70 70 W 9 15 30 1016 10 16.09344 0 0
10:55 pm 22:55 Clear 33 0.7 25 -3.8 72 72 W 7 11 30 1016 10 16.09344 0 0
11:15 pm 23:15 Clear 35 1.9 26 -3.4 68 68 W 7 11 30 1016 10 16.09344 0 0
11:35 pm 23:35 Clear 34 0.9 26 -3.6 72 72 W 6 9 30 1016 10 16.09344 0 0
11:55 pm 23:55 Clear 31 -0.3 25 -4 76 76 WNW 3 6 30.03 1017 10 16.09344 0 0

Powered by AerisWeather